EW3084 Weather Reports


Display with metric or nautical units.
time (UTC)temp
F
wind
direction
speed
MPH
gust
MPH
rain 1hr
in
rain 24hr
in
rain mn
in
humidity
%
barometer
mb
20260831110219 62 273 4.0 11.0 0.00 0.21 0.09 85
20260831105403 62 259 3.0 9.0 0.00 0.21 0.09 84
20260831104503 63 257 3.0 9.0 0.00 0.21 0.09 84
20260831103603 63 270 3.0 9.0 0.00 0.21 0.09 85
20260831102703 62 274 4.0 11.0 0.00 0.21 0.09 89
20260831101803 61 279 5.0 15.0 0.00 0.21 0.09 87
20260831101119 61 268 6.0 12.0 0.00 0.21 0.09 86
20260831100003 61 264 4.0 13.0 0.00 0.21 0.09 87
20260831095403 61 277 4.0 10.0 0.00 0.21 0.09 89
20260831094503 61 275 5.0 13.0 0.00 0.21 0.09 88
20260831093603 61 269 5.0 14.0 0.00 0.21 0.09 89
20260831092703 61 274 6.0 15.0 0.00 0.21 0.09 89
20260831091803 61 273 5.0 14.0 0.00 0.21 0.09 89
20260831091119 61 266 5.0 11.0 0.00 0.21 0.09 91
20260831090003 61 274 6.0 15.0 0.00 0.21 0.09 92
20260831085403 61 272 6.0 15.0 0.00 0.21 0.09 92
20260831084503 60 274 6.0 11.0 0.00 0.21 0.09 100
20260831083603 60 272 6.0 15.0 0.00 0.21 0.09 100
20260831082703 60 268 6.0 15.0 0.00 0.21 0.09 100
20260831081803 60 274 6.0 13.0 0.00 0.21 0.09 100
20260831080903 59 263 7.0 13.0 0.00 0.21 0.09 100
20260831080003 59 268 5.0 12.0 0.00 0.21 0.09 100
20260831075403 59 280 5.0 12.0 0.00 0.21 0.09 100
20260831074503 59 270 5.0 12.0 0.00 0.21 0.09 100
20260831073603 59 273 5.0 12.0 0.00 0.21 0.09 100
20260831072703 59 262 7.0 16.0 0.00 0.21 0.09 100
20260831071803 59 272 7.0 17.0 0.00 0.21 0.09 100
20260831070903 59 276 4.0 17.0 0.00 0.21 0.09 100
20260831070003 59 279 6.0 13.0 0.01 0.21 0.09 100
20260831065403 59 276 5.0 13.0 0.01 0.21 0.09 100
20260831064503 59 274 5.0 12.0 0.01 0.21 0.09 100
20260831063603 59 269 6.0 16.0 0.01 0.21 0.09 100
20260831062703 59 272 5.0 16.0 0.01 0.21 0.09 100
20260831061803 59 261 0.0 1.0 0.01 0.21 0.09 100
20260831060903 59 0 0.0 0.0 0.01 0.21 0.09 100
20260831060003 59 0 0.0 0.0 0.00 0.20 0.08 100
20260831055617 59 0 0.0 0.0 0.00 0.20 0.08 100
20260831054503 59 0 0.0 0.0 0.00 0.20 0.08 100
20260831053815 59 266 0.0 3.0 0.00 0.20 0.08 100
20260831052919 59 269 1.0 6.0 0.00 0.20 0.08 100
20260831052018 59 276 1.0 5.0 0.00 0.21 0.08 100
20260831050003 59 279 2.0 6.0 0.00 0.24 0.08 100
20260831045619 59 273 3.0 7.0 0.00 0.24 0.08 100
20260831044503 59 266 2.0 5.0 0.00 0.24 0.08 100
20260831043603 59 257 2.0 7.0 0.00 0.24 0.08 100
20260831042703 59 270 1.0 5.0 0.00 0.24 0.08 100
20260831041803 59 273 0.0 2.0 0.00 0.24 0.08 100
20260831041115 59 279 0.0 2.0 0.00 0.24 0.08 100
20260831040003 59 267 0.0 2.0 0.00 0.24 0.08 100
20260831035403 59 267 0.0 2.0 0.00 0.24 0.08 100
20260831034503 59 267 0.0 1.0 0.00 0.24 0.08 100
20260831033817 59 268 0.0 3.0 0.00 0.24 0.08 100
20260831032703 59 264 1.0 4.0 0.00 0.24 0.08 100
20260831031803 59 264 0.0 3.0 0.00 0.24 0.08 100
20260831030903 59 264 1.0 3.0 0.00 0.24 0.08 100
20260831030219 59 265 1.0 5.0 0.00 0.24 0.08 100
20260831025403 59 279 2.0 6.0 0.00 0.24 0.08 100
20260831024503 59 279 2.0 4.0 0.00 0.24 0.08 100
20260831023603 59 271 1.0 7.0 0.00 0.24 0.08 100
20260831022703 59 265 1.0 4.0 0.01 0.24 0.08 100
20260831022019 59 255 1.0 4.0 0.02 0.24 0.08 100
20260831020903 59 282 0.0 2.0 0.02 0.24 0.08 100
20260831020003 59 285 0.0 3.0 0.02 0.24 0.08 100
20260831015403 59 281 0.0 2.0 0.02 0.24 0.08 100
20260831014503 59 276 1.0 3.0 0.02 0.24 0.08 100
20260831013603 59 277 1.0 5.0 0.02 0.24 0.08 100
20260831012703 59 305 1.0 4.0 0.02 0.24 0.07 100
20260831011803 59 290 1.0 4.0 0.02 0.23 0.06 100
20260831010903 59 0 0.0 0.0 0.02 0.24 0.06 100
20260831010003 59 198 0.0 1.0 0.02 0.24 0.06 100
20260831005403 59 0 0.0 0.0 0.02 0.24 0.06 100
20260831004503 59 0 0.0 0.0 0.02 0.24 0.06 100
20260831003603 59 198 0.0 3.0 0.02 0.24 0.06 100
20260831002703 59 198 0.0 3.0 0.02 0.24 0.06 100
20260831001803 59 0 0.0 0.0 0.01 0.23 0.05 100
20260831001118 59 198 0.0 1.0 0.01 0.23 0.05 100
20260831000003 59 198 0.0 2.0 0.01 0.22 0.04 100
20260830235403 59 198 0.0 2.0 0.01 0.22 0.04 100
20260830234503 59 197 0.0 2.0 0.02 0.22 0.04 100
20260830233603 59 195 0.0 2.0 0.02 0.22 0.04 100
20260830232703 59 194 0.0 2.0 0.03 0.22 0.04 100
20260830232018 59 194 0.0 1.0 0.03 0.22 0.04 100
20260830230903 59 194 0.0 1.0 0.04 0.22 0.04 100
20260830230003 59 0 0.0 0.0 0.03 0.21 0.03 100
20260830225616 59 0 0.0 0.0 0.03 0.21 0.03 100
20260830224716 59 194 0.0 2.0 0.04 0.20 0.02 100
20260830223603 59 0 0.0 0.0 0.03 0.20 0.02 100
20260830222918 59 0 0.0 0.0 0.04 0.20 0.02 100
20260830221803 59 0 0.0 0.0 0.03 0.18 0.00 100
20260830220903 59 0 0.0 0.0 0.04 0.19 0.00 100
20260830220216 59 0 0.0 0.0 0.05 0.19 0.00 100
20260830215403 59 0 0.0 0.0 0.05 0.18 0.18 100
20260830214503 60 0 0.0 0.0 0.05 0.17 0.17 100
20260830213819 60 0 0.0 0.0 0.05 0.17 0.17 100
20260830212703 60 0 0.0 0.0 0.04 0.17 0.17 100
20260830212018 60 0 0.0 0.0 0.03 0.16 0.16 100
20260830210903 60 0 0.0 0.0 0.02 0.15 0.15 100
20260830210003 60 0 0.0 0.0 0.02 0.14 0.14 100
20260830205616 60 0 0.0 0.0 0.02 0.14 0.14 100
20260830204503 60 0 0.0 0.0 0.00 0.13 0.13 100
20260830203818 60 0 0.0 0.0 0.00 0.13 0.13 100
20260830202703 60 0 0.0 0.0 0.00 0.13 0.13 100
20260830201803 60 0 0.0 0.0 0.00 0.13 0.13 100
20260830200903 60 0 0.0 0.0 0.00 0.13 0.13 100
20260830200216 60 0 0.0 0.0 0.00 0.13 0.13 100
20260830195403 60 0 0.0 0.0 0.00 0.13 0.13 100
20260830194503 60 0 0.0 0.0 0.00 0.13 0.13 100
20260830193603 61 0 0.0 0.0 0.00 0.13 0.13 100
20260830192703 61 0 0.0 0.0 0.00 0.13 0.13 100
20260830192017 61 0 0.0 0.0 0.00 0.13 0.13 100
20260830190903 61 0 0.0 0.0 0.00 0.13 0.13 100
20260830190003 61 0 0.0 0.0 0.00 0.13 0.13 100
20260830185403 61 0 0.0 0.0 0.00 0.13 0.13 100
20260830184503 61 0 0.0 0.0 0.00 0.13 0.13 100
20260830183603 61 0 0.0 0.0 0.00 0.13 0.13 100
20260830182703 62 0 0.0 0.0 0.00 0.14 0.13 100
20260830181803 62 0 0.0 0.0 0.00 0.14 0.13 100
20260830180903 62 0 0.0 0.0 0.00 0.14 0.13 100
20260830180219 62 0 0.0 0.0 0.00 0.14 0.13 100
20260830175403 62 194 0.0 1.0 0.00 0.14 0.13 100
20260830174503 63 194 0.0 3.0 0.00 0.14 0.13 100
20260830173603 63 194 1.0 3.0 0.00 0.14 0.13 100
20260830172916 63 194 0.0 2.0 0.00 0.14 0.13 100
20260830171803 64 200 1.0 3.0 0.00 0.14 0.13 100
20260830170903 64 219 0.0 3.0 0.00 0.14 0.13 100
20260830170003 64 304 0.0 2.0 0.00 0.14 0.13 100
20260830165403 64 0 0.0 0.0 0.00 0.14 0.13 100
20260830164503 64 0 0.0 0.0 0.00 0.14 0.13 100
20260830163603 63 0 0.0 0.0 0.00 0.14 0.13 100
20260830162916 63 0 0.0 0.0 0.00 0.14 0.13 100
20260830161803 63 304 0.0 1.0 0.00 0.14 0.13 100
20260830160903 63 304 0.0 1.0 0.00 0.14 0.13 100
20260830160003 63 304 0.0 2.0 0.00 0.14 0.13 100
20260830155403 63 304 0.0 2.0 0.00 0.14 0.13 100
20260830154503 63 304 0.0 3.0 0.00 0.14 0.13 100
20260830153603 63 299 1.0 3.0 0.00 0.14 0.13 100
20260830152703 64 290 2.0 7.0 0.00 0.14 0.13 100
20260830151803 64 202 1.0 3.0 0.00 0.14 0.13 100
20260830150903 64 188 0.0 2.0 0.00 0.14 0.13 100
20260830150003 64 188 0.0 3.0 0.00 0.14 0.13 100
20260830145403 64 188 1.0 3.0 0.00 0.14 0.13 100
20260830144503 64 188 0.0 2.0 0.00 0.14 0.13 100
20260830143603 64 188 1.0 2.0 0.00 0.14 0.13 100
20260830142703 65 188 0.0 3.0 0.00 0.14 0.13 100
20260830141803 64 188 0.0 2.0 0.00 0.14 0.13 100
20260830140903 64 194 0.0 2.0 0.00 0.14 0.13 100
20260830140003 64 247 0.0 2.0 0.00 0.14 0.13 100
20260830135403 64 248 0.0 2.0 0.00 0.14 0.13 100
20260830134503 63 248 0.0 1.0 0.00 0.14 0.13 100
20260830133603 62 0 0.0 0.0 0.01 0.14 0.13 100
20260830132703 62 0 0.0 0.0 0.02 0.14 0.13 100
20260830131803 62 0 0.0 0.0 0.02 0.14 0.13 100
20260830130903 62 248 0.0 1.0 0.06 0.14 0.13 100
20260830130003 62 0 0.0 0.0 0.06 0.14 0.13 100
20260830125617 62 0 0.0 0.0 0.06 0.14 0.13 100
20260830124503 62 248 0.0 2.0 0.06 0.14 0.13 100
20260830123603 62 248 0.0 2.0 0.06 0.13 0.12 98
20260830122703 63 248 0.0 2.0 0.05 0.13 0.11 95
20260830121803 63 257 0.0 4.0 0.04 0.12 0.10 92
20260830120903 64 259 0.0 4.0 0.01 0.09 0.07 89
20260830120003 65 192 1.0 4.0 0.00 0.08 0.06 85
20260830115616 65 176 1.0 4.0 0.00 0.08 0.06 83
20260830114503 65 206 1.0 5.0 0.00 0.08 0.06 81
20260830113603 65 249 0.0 3.0 0.00 0.08 0.06 81
20260830112703 65 292 1.0 4.0 0.00 0.08 0.06 83
20260830111803 65 293 1.0 4.0 0.00 0.08 0.06 81
20260830111117 65 186 1.0 6.0 0.00 0.08 0.06 81